RADFXSAT-2 (AO-109) (47311 NORAD) Tracking and Keplerian Element Data

This shows tracking and keplerian element data for the satellite.

Feedback or suggestion? Click here.




ElementValue
Catalog47311
NameRADFXSAT-2 (AO-109)
Epoch Orbit16674
Epoch Day12.9484625
Epoch Year2024
RAAN321.9836
Inclination60.675
Eccentricity0.0028504
Argument of Perigee61.044
Mean Anonmoly299.3517
Mean Motion15.5968204
Decay Rate0.0010312
L11 47311U 21002C 24012.94846250 .00103120 00000+0 12424-2 0 9999
L22 47311 60.6750 321.9836 0028504 61.0440 299.3517 15.59682040166748



Live tracking and technical data element details for RADFXSAT-2 (AO-109) (NORAD 47311). RADFXSAT-2 (AO-109) can be tracked NOW for your location showing map with azimuth and elevation plus other details from your city location.







IsCatalogInMostPopularTable: catalog: 47311, numindb: 189
Update: records affected: 1



GetName: 47311 RADFXSAT-2 (AO-109)

Hit Count: updated at: Thu, 23 Jan 2025 17:09:44 GMT